Regional Weather Roundup
Issued by NWS Jackson, KY

Home | Current Version | Previous Version | Graphics & Text | Print | Product List | Glossary On
Versions: 1 2 3 4 5 6 7 8 9 10 11 12 13 14 15 16 17 18 19 20 21 22 23 24 25 26 27 28 29 30 31 32 33 34 35 36 37 38 39 40 41 42 43 44 45 46 47 48 49 50
000
ASUS43 KJKL 240611
RWRJKL

EAST KENTUCKY HOURLY WEATHER ROUNDUP
NATIONAL WEATHER SERVICE JACKSON KY
200 AM EDT THU APR 24 2014

NOTE: "FAIR" INDICATES FEW OR NO CLOUDS BELOW 12,000 FEET WITH
NO SIGNIFICANT WEATHER AND/OR OBSTRUCTIONS TO VISIBILITY.

* THESE REPORTS ARE NOT UNDER NWS QUALITY CONTROL AND MAY NOT
  REPORT WEATHER SUCH AS PRECIPITATION AND FOG.

KYZ079-080-083-085-087-088-110-112-115-119-120-240700
...EASTERN KENTUCKY...

CITY           SKY/WX    TMP DP  RH WIND       PRES   REMARKS
JACKSON          N/A     49  30  48 CALM      30.05F
6HR MIN TEMP:  48; 6HR MAX TEMP:  58;

LONDON           N/A     50  31  48 CALM      30.04F
6HR MIN TEMP:  50; 6HR MAX TEMP:  60;

SOMERSET*        N/A     46  32  57 CALM      30.05F
WILLIAMSBURG*  CLEAR     45  34  65 CALM      30.03
MIDDLESBORO*     N/A     41  36  81 CALM      30.04F
6HR MIN TEMP:  41; 6HR MAX TEMP:  62;

HARLAN APT*      N/A     43  32  65 CALM      30.04F
BLACK MTN*       N/A     41  27  56 NE2         N/A
PIKEVILLE APT* CLEAR     46  30  53 NE5       30.06F
BIG SANDY*       N/A     45  32  62 NE6       30.07S
6HR MIN TEMP:  45; 6HR MAX TEMP:  57;

MOREHEAD APT*  CLEAR    N/A N/A N/A MISG      30.08F
$$

KYZ035-036-041-042-044-050-067-078-099-240700
...CENTRAL KENTUCKY...

CITY           SKY/WX    TMP DP  RH WIND       PRES   REMARKS
MT STERLING*     N/A     46  34  61 E7        30.07S
FLEMING/MASON* CLEAR     45  32  61 NE9       30.09S
RICHMOND*        N/A     45  34  65 E5        30.04F
LEXINGTON        N/A     50  33  52 E10       30.04F
6HR MIN TEMP:  45; 6HR MAX TEMP:  57;

FRANKFORT        N/A     48  34  58 NE3       30.04S
6HR MIN TEMP:  43; 6HR MAX TEMP:  60;

$$

KYZ091>093-OHZ055-061-077-WVZ005-015-034-035-042-240700
...SOUTHERN OHIO/WEST VIRGINIA...

CITY           SKY/WX    TMP DP  RH WIND       PRES   REMARKS
COVINGTON      CLOUDY    52  34  50 E13       30.06F
COLUMBUS       CLOUDY    45  28  51 CALM      30.11R
DAYTON         CLOUDY    48  32  53 SE10      30.09F
WILMINGTON       N/A     43  33  68 E7        30.10R
HUNTINGTON       N/A     47  32  56 NE6       30.08S
CHARLESTON       N/A     44  34  67 NE6       30.08S
PINEVILLE*       N/A     38  35  87 MISG      30.11S
BECKLEY          N/A     41  28  60 CALM      30.06S
BLUEFIELD        N/A     46  27  47 CALM      30.05F
$$

VAZ002-007-008-TNZ017-027-036-066-071-240700
...SOUTHWEST VIRGINIA/EAST TENNESSEE...

CITY           SKY/WX    TMP DP  RH WIND       PRES   REMARKS
WISE*            N/A     45  23  42 N7        30.05F
ABINGDON*        N/A     45  28  52 E5        30.04F
BRISTOL          N/A     41  30  65 CALM      30.04F
KNOXVILLE        N/A     51  33  50 N8        30.00F
OAK RIDGE        N/A     50  34  54 CALM      30.02F
CROSSVILLE       N/A     48  31  51 NE3       30.01F
NASHVILLE        N/A     50  36  58 CALM      30.00S
$$

...KEY TO REMARKS...
VSB - VISIBILITY IN MILES
WCI - WIND CHILL INDEX
HX  - HEAT INDEX

$$



USA.gov is the U.S. government's official web portal to all federal, state and local government web resources and services.